Погода в Благовещенске

Россия / Республика Башкортостан     55°02′59″N   55°57′18″E
темп.,
°C
ветер,
м/с
пор.,
м/с
влажн.,
%
обл.,
%
осадки,
мм/ч
давл.,
гПа
погр.,
м
20 апреля, вт
вт2023:00+1в510460 0.0 1032297
02:00−1вюв25510 0.0 103394
05:00−2в11500 0.0 103510
08:00+1в11395 0.0 1035234
11:00+5в23300 0.0 10351047
14:00+8вюв33250 0.0 10331417
17:00+9юв12230 0.0 10321428
20:00+7всв11341 0.0 103211
21 апреля, ср
ср2123:00+4св22400 0.0 103212
02:00+2в22560 0.0 103230
05:00+1юв11542 0.0 103310
08:00+4ююв234897 0.0 1033147
11:00+8ююв3432100 0.0 1032720
14:00+11ююв4529100 0.0 10311213
17:00+13ююв4628100 0.0 10291360
20:00+10ю2339100 0.0 102930
22 апреля, чт
чт2223:00+8ю41044100 0.0 1030251
02:00+8ююв61247100 0.0 1030639
05:00+6ю61160100 0.1 1031734
08:00+7ююв61155100 0.0 1030799
11:00+10ю81039100 0.0 10311192
14:00+11ю71135100 0.0 10301563
17:00+8ю81358100 0.1 10311318
20:00+7юз4778100 0.0 1031466
23 апреля, пт
пт2323:00+6ююв2579100 0.0 1031174
02:00+5ю5995100 1.4 1030784
05:00+5ююв4896100 4.2 1030857
08:00+5ю3794100 1.6 10291016
11:00+5ю4593100 2.3 1029887
14:00+7ююз2582100 0.1 1029557
17:00+9с1170100 0.1 1027293
20:00+8св3579100 0.0 1026104
24 апреля, сб
сб2423:00+7св3684100 0.0 1025112
02:00+8ю5985100 0.1 1024378
05:00+7юв2595100 1.6 1022182
08:00+7юв4792100 1.1 1020522
11:00+7вюв4686100 1.3 10181017
14:00+7вюв4688100 0.4 10171053
17:00+7в3687100 1.3 1016454
20:00+7св4889100 1.0 1014341